This is the latest recevied weather packets stored in our database for station/object N2QDK-2. If no packets are shown the sender has not sent any weather packets the latest 10 day(s).
| Time | Temp. | Humidity | Pressure | Rain* | Wind** | Luminosity | Snow |
|---|---|---|---|---|---|---|---|
| 1777936516 | 22.78° C | 36% | 1002.7 hPa | 0 mm | - | - | - |
| 1777935916 | 22.78° C | 36% | 1002.7 hPa | 0 mm | - | - | - |
| 1777935316 | 22.78° C | 35% | 1002.7 hPa | 0 mm | - | - | - |
| 1777934716 | 23.33° C | 35% | 1002.6 hPa | 0 mm | - | - | - |
| 1777934116 | 23.33° C | 35% | 1002.6 hPa | 0 mm | - | - | - |
| 1777933516 | 23.33° C | 35% | 1002.6 hPa | 0 mm | - | - | - |
| 1777932916 | 23.89° C | 36% | 1002.6 hPa | 0 mm | - | - | - |
| 1777932316 | 23.89° C | 35% | 1002.7 hPa | 0 mm | - | - | - |
| 1777931716 | 23.89° C | 34% | 1002.8 hPa | 0 mm | - | - | - |
| 1777931116 | 24.44° C | 35% | 1002.9 hPa | 0 mm | - | - | - |
| 1777930516 | 24.44° C | 35% | 1003 hPa | 0 mm | - | - | - |
| 1777929916 | 23.89° C | 36% | 1002.9 hPa | 0 mm | - | - | - |
| 1777929316 | 23.89° C | 35% | 1002.9 hPa | 0 mm | - | - | - |
| 1777928716 | 23.89° C | 37% | 1003.2 hPa | 0 mm | - | - | - |
| 1777928116 | 23.89° C | 36% | 1003.3 hPa | 0 mm | - | - | - |
| 1777927516 | 23.89° C | 36% | 1003.3 hPa | 0 mm | - | - | - |
| 1777926916 | 23.89° C | 38% | 1003.2 hPa | 0 mm | - | - | - |
| 1777926317 | 23.89° C | 36% | 1003.4 hPa | 0 mm | - | - | - |
| 1777925717 | 23.89° C | 37% | 1003.4 hPa | 0 mm | - | - | - |
| 1777925116 | 23.33° C | 38% | 1003.6 hPa | 0 mm | - | - | - |
| 1777924516 | 23.33° C | 39% | 1003.7 hPa | 0 mm | - | - | - |
| 1777923917 | 23.33° C | 37% | 1003.9 hPa | 0 mm | - | - | - |
| 1777923317 | 23.33° C | 36% | 1004.1 hPa | 0 mm | - | - | - |
| 1777922717 | 23.33° C | 37% | 1004.3 hPa | 0 mm | - | - | - |
| 1777922116 | 23.33° C | 38% | 1004.3 hPa | 0 mm | - | - | - |
* Rain latest hour (hover to see other rain measurements)
** Current wind speed in m/s (hover to see current wind gust speed)